Station Historical Data
Daily Summary for July 15, 2017 Units:  English    Metric   Both
« Previous Day
Next Day »
Daily Weekly Monthly Yearly Custom
  High: Low: Average:
Temperature: 75.6 °F 62.8 °F 68.8 °F
Dew Point: 65.3 °F 58.2 °F 61.5 °F
Humidity: 85% 65% 78%
Wind Speed: 14.0mph 0.0mph 4.3mph
Wind Gust: 17.0mph - -
Wind- - West
Pressure: 30.02 in 29.94 in -
Precipitation: 0.00 in    
Historical Graphs
 
 
Tabular Data for July 15, 2017
Time Temperature Dew Point Pressure Wind Wind Speed Wind Gust Humidity Rainfall Rate (Hourly)
00:04 66.6 °F 59.9 °F 29.95 in WNW 1.0 mph 3.0 mph 79% 0.00 in
00:09 66.5 °F 59.8 °F 29.96 in WNW 1.0 mph 3.0 mph 79% 0.00 in
00:14 66.6 °F 59.9 °F 29.96 in WNW 1.0 mph 4.0 mph 79% 0.00 in
00:24 66.4 °F 59.7 °F 29.96 in WNW 1.0 mph 3.0 mph 79% 0.00 in
00:29 66.4 °F 59.7 °F 29.96 in Calm   3.0 mph 79% 0.00 in
00:34 66.3 °F 59.9 °F 29.96 in Calm   3.0 mph 80% 0.00 in
00:39 66.3 °F 59.9 °F 29.96 in West 2.0 mph 3.0 mph 80% 0.00 in
00:44 66.2 °F 59.8 °F 29.96 in West 3.0 mph 4.0 mph 80% 0.00 in
00:49 66.3 °F 59.9 °F 29.96 in West 2.0 mph 5.0 mph 80% 0.00 in
00:54 66.2 °F 59.8 °F 29.95 in West 2.0 mph 5.0 mph 80% 0.00 in
00:59 66.2 °F 59.8 °F 29.96 in West 1.0 mph 5.0 mph 80% 0.00 in
01:04 66.1 °F 59.7 °F 29.95 in West 3.0 mph 6.0 mph 80% 0.00 in
01:09 66.2 °F 59.8 °F 29.95 in West 3.0 mph 7.0 mph 80% 0.00 in
01:14 66.1 °F 59.7 °F 29.95 in WNW 3.0 mph 5.0 mph 80% 0.00 in
01:19 65.9 °F 59.6 °F 29.95 in WNW 3.0 mph 7.0 mph 80% 0.00 in
01:24 65.9 °F 59.2 °F 29.95 in WNW 4.0 mph 8.0 mph 79% 0.00 in
01:29 65.9 °F 59.2 °F 29.95 in WSW 2.0 mph 6.0 mph 79% 0.00 in
01:34 65.9 °F 59.2 °F 29.95 in West 3.0 mph 6.0 mph 79% 0.00 in
01:39 65.6 °F 58.9 °F 29.95 in West 2.0 mph 5.0 mph 79% 0.00 in
01:44 65.6 °F 59.3 °F 29.95 in West 2.0 mph 5.0 mph 80% 0.00 in
01:49 65.3 °F 59.0 °F 29.95 in WNW 2.0 mph 5.0 mph 80% 0.00 in
01:54 65.2 °F 58.9 °F 29.95 in WNW 4.0 mph 5.0 mph 80% 0.00 in
01:59 65.1 °F 58.8 °F 29.95 in WNW 1.0 mph 5.0 mph 80% 0.00 in
02:04 65.2 °F 58.9 °F 29.95 in West 3.0 mph 6.0 mph 80% 0.00 in
02:09 65.1 °F 58.8 °F 29.95 in West 3.0 mph 6.0 mph 80% 0.00 in
02:14 64.8 °F 58.8 °F 29.95 in Calm   2.0 mph 81% 0.00 in
02:19 64.7 °F 59.1 °F 29.95 in WNW 3.0 mph 4.0 mph 82% 0.00 in
02:24 64.6 °F 59.0 °F 29.95 in WNW 3.0 mph 5.0 mph 82% 0.00 in
02:29 64.5 °F 58.9 °F 29.95 in West 1.0 mph 4.0 mph 82% 0.00 in
02:34 64.5 °F 58.9 °F 29.95 in West 2.0 mph 4.0 mph 82% 0.00 in
02:39 64.5 °F 58.9 °F 29.95 in WNW 2.0 mph 7.0 mph 82% 0.00 in
02:44 64.5 °F 58.9 °F 29.95 in WNW 2.0 mph 7.0 mph 82% 0.00 in
02:49 64.6 °F 59.0 °F 29.95 in WNW 3.0 mph 7.0 mph 82% 0.00 in
02:54 64.7 °F 59.1 °F 29.95 in WNW 3.0 mph 6.0 mph 82% 0.00 in
02:59 64.7 °F 59.1 °F 29.95 in WNW 3.0 mph 7.0 mph 82% 0.00 in
03:04 64.7 °F 58.7 °F 29.95 in WNW 3.0 mph 7.0 mph 81% 0.00 in
03:09 64.5 °F 58.5 °F 29.95 in WNW 4.0 mph 6.0 mph 81% 0.00 in
03:14 64.5 °F 58.9 °F 29.95 in WNW 4.0 mph 5.0 mph 82% 0.00 in
03:19 64.5 °F 58.9 °F 29.95 in West 3.0 mph 5.0 mph 82% 0.00 in
03:24 64.5 °F 58.9 °F 29.95 in WNW 3.0 mph 6.0 mph 82% 0.00 in
03:29 64.5 °F 58.9 °F 29.95 in WNW 7.0 mph 8.0 mph 82% 0.00 in
03:34 64.5 °F 58.9 °F 29.95 in West 4.0 mph 8.0 mph 82% 0.00 in
03:39 64.5 °F 58.9 °F 29.95 in West 3.0 mph 7.0 mph 82% 0.00 in
03:44 64.5 °F 58.9 °F 29.95 in West 4.0 mph 7.0 mph 82% 0.00 in
03:49 64.5 °F 58.9 °F 29.95 in West 3.0 mph 7.0 mph 82% 0.00 in
03:54 64.3 °F 58.7 °F 29.96 in WNW 2.0 mph 6.0 mph 82% 0.00 in
03:59 64.1 °F 58.8 °F 29.95 in Calm   7.0 mph 83% 0.00 in
04:04 63.9 °F 58.6 °F 29.95 in WNW 2.0 mph 7.0 mph 83% 0.00 in
04:09 63.8 °F 58.5 °F 29.96 in WNW 3.0 mph 5.0 mph 83% 0.00 in
04:14 63.9 °F 58.6 °F 29.96 in WNW 2.0 mph 9.0 mph 83% 0.00 in
04:19 63.8 °F 58.5 °F 29.96 in WNW 3.0 mph 9.0 mph 83% 0.00 in
04:24 63.7 °F 58.8 °F 29.96 in WNW 2.0 mph 9.0 mph 84% 0.00 in
04:29 63.5 °F 58.6 °F 29.96 in WNW 3.0 mph 6.0 mph 84% 0.00 in
04:34 63.3 °F 58.4 °F 29.96 in WNW 3.0 mph 6.0 mph 84% 0.00 in
04:39 63.1 °F 58.5 °F 29.96 in WNW 2.0 mph 5.0 mph 85% 0.00 in
04:44 62.9 °F 58.3 °F 29.96 in WNW 2.0 mph 6.0 mph 85% 0.00 in
04:49 62.9 °F 58.3 °F 29.97 in WNW 3.0 mph 6.0 mph 85% 0.00 in
04:54 62.8 °F 58.2 °F 29.97 in WNW 4.0 mph 9.0 mph 85% 0.00 in
04:59 62.8 °F 58.2 °F 29.97 in WNW 5.0 mph 6.0 mph 85% 0.00 in
05:04 62.9 °F 58.3 °F 29.97 in WNW 4.0 mph 10.0 mph 85% 0.00 in
05:09 63.0 °F 58.4 °F 29.97 in WNW 5.0 mph 11.0 mph 85% 0.00 in
05:14 63.2 °F 58.3 °F 29.98 in West 7.0 mph 8.0 mph 84% 0.00 in
05:19 63.4 °F 58.5 °F 29.98 in NW 6.0 mph 8.0 mph 84% 0.00 in
05:24 63.4 °F 58.5 °F 29.98 in WNW 3.0 mph 8.0 mph 84% 0.00 in
05:29 63.5 °F 58.6 °F 29.98 in West 4.0 mph 6.0 mph 84% 0.00 in
05:34 63.5 °F 58.6 °F 29.98 in West 4.0 mph 9.0 mph 84% 0.00 in
05:39 63.6 °F 58.7 °F 29.99 in West 5.0 mph 9.0 mph 84% 0.00 in
05:44 63.7 °F 58.4 °F 29.99 in West 5.0 mph 10.0 mph 83% 0.00 in
05:49 63.7 °F 58.4 °F 29.99 in West 2.0 mph 8.0 mph 83% 0.00 in
05:54 63.7 °F 58.4 °F 29.99 in West 3.0 mph 9.0 mph 83% 0.00 in
05:59 63.7 °F 58.4 °F 29.99 in WNW 4.0 mph 8.0 mph 83% 0.00 in
06:04 63.7 °F 58.4 °F 29.99 in WNW 5.0 mph 8.0 mph 83% 0.00 in
06:09 63.8 °F 58.5 °F 29.99 in WNW 4.0 mph 8.0 mph 83% 0.00 in
06:14 63.8 °F 58.5 °F 29.99 in West 4.0 mph 9.0 mph 83% 0.00 in
06:19 63.8 °F 58.5 °F 29.99 in West 6.0 mph 8.0 mph 83% 0.00 in
06:24 63.8 °F 58.5 °F 29.99 in WNW 3.0 mph 8.0 mph 83% 0.00 in
06:29 63.8 °F 58.5 °F 29.99 in West 3.0 mph 9.0 mph 83% 0.00 in
06:34 63.7 °F 58.4 °F 30.00 in WNW 4.0 mph 9.0 mph 83% 0.00 in
06:39 63.6 °F 58.3 °F 30.00 in West 3.0 mph 6.0 mph 83% 0.00 in
06:44 63.7 °F 58.4 °F 29.99 in WNW 3.0 mph 7.0 mph 83% 0.00 in
06:49 63.8 °F 58.5 °F 30.00 in WSW 4.0 mph 6.0 mph 83% 0.00 in
06:54 63.8 °F 58.5 °F 30.00 in WNW 6.0 mph 7.0 mph 83% 0.00 in
06:59 63.9 °F 58.6 °F 30.00 in West 3.0 mph 7.0 mph 83% 0.00 in
07:04 64.1 °F 58.8 °F 30.00 in WNW 4.0 mph 7.0 mph 83% 0.00 in
07:09 64.1 °F 58.8 °F 30.00 in WNW 3.0 mph 6.0 mph 83% 0.00 in
07:14 64.5 °F 58.9 °F 30.00 in West 3.0 mph 8.0 mph 82% 0.00 in
07:19 64.5 °F 58.9 °F 30.00 in West 4.0 mph 8.0 mph 82% 0.00 in
07:24 64.4 °F 58.8 °F 30.00 in West 3.0 mph 7.0 mph 82% 0.00 in
07:29 64.4 °F 59.1 °F 30.00 in Calm   4.0 mph 83% 0.00 in
07:34 64.5 °F 58.9 °F 30.00 in West 3.0 mph 7.0 mph 82% 0.00 in
07:39 64.5 °F 59.2 °F 30.00 in West 3.0 mph 6.0 mph 83% 0.00 in
07:44 64.5 °F 59.2 °F 30.00 in West 8.0 mph 8.0 mph 83% 0.00 in
07:49 64.5 °F 59.2 °F 30.01 in West 5.0 mph 8.0 mph 83% 0.00 in
07:54 64.5 °F 59.2 °F 30.01 in WNW 3.0 mph 7.0 mph 83% 0.00 in
07:59 64.5 °F 59.2 °F 30.01 in West 4.0 mph 5.0 mph 83% 0.00 in
08:04 64.6 °F 59.3 °F 30.01 in WNW 4.0 mph 8.0 mph 83% 0.00 in
08:09 64.5 °F 59.2 °F 30.01 in WNW 4.0 mph 8.0 mph 83% 0.00 in
08:14 64.7 °F 59.4 °F 30.01 in WNW 3.0 mph 7.0 mph 83% 0.00 in
08:19 64.7 °F 59.4 °F 30.01 in WNW 2.0 mph 6.0 mph 83% 0.00 in
08:24 64.7 °F 59.4 °F 30.01 in WNW 3.0 mph 7.0 mph 83% 0.00 in
08:29 64.9 °F 59.6 °F 30.01 in NW 2.0 mph 8.0 mph 83% 0.00 in
08:34 64.9 °F 59.6 °F 30.01 in WNW 3.0 mph 7.0 mph 83% 0.00 in
08:39 65.2 °F 59.9 °F 30.01 in WNW 4.0 mph 8.0 mph 83% 0.00 in
08:44 65.7 °F 60.1 °F 30.01 in NW 3.0 mph 8.0 mph 82% 0.00 in
08:49 65.8 °F 60.2 °F 30.01 in West 6.0 mph 8.0 mph 82% 0.00 in
08:54 65.9 °F 59.9 °F 30.01 in WSW 4.0 mph 8.0 mph 81% 0.00 in
08:59 65.8 °F 59.8 °F 30.01 in West 3.0 mph 9.0 mph 81% 0.00 in
09:04 65.8 °F 59.8 °F 30.02 in WNW 4.0 mph 9.0 mph 81% 0.00 in
09:09 65.9 °F 59.9 °F 30.01 in WNW 4.0 mph 8.0 mph 81% 0.00 in
09:14 65.8 °F 59.8 °F 30.02 in WNW 4.0 mph 8.0 mph 81% 0.00 in
09:19 65.7 °F 60.1 °F 30.02 in West 2.0 mph 6.0 mph 82% 0.00 in
09:24 65.7 °F 60.1 °F 30.01 in West 2.0 mph 6.0 mph 82% 0.00 in
09:29 65.7 °F 60.1 °F 30.02 in WNW 1.0 mph 7.0 mph 82% 0.00 in
09:34 66.1 °F 60.1 °F 30.01 in West 3.0 mph 7.0 mph 81% 0.00 in
09:39 66.5 °F 60.5 °F 30.01 in West 3.0 mph 6.0 mph 81% 0.00 in
09:44 66.7 °F 60.3 °F 30.01 in West 3.0 mph 6.0 mph 80% 0.00 in
09:49 66.9 °F 60.5 °F 30.02 in WNW 3.0 mph 7.0 mph 80% 0.00 in
09:54 66.8 °F 60.4 °F 30.02 in WNW 3.0 mph 7.0 mph 80% 0.00 in
09:59 67.1 °F 60.7 °F 30.01 in WNW 1.0 mph 4.0 mph 80% 0.00 in
10:04 67.3 °F 60.6 °F 30.01 in WNW 2.0 mph 5.0 mph 79% 0.00 in
10:09 67.7 °F 61.0 °F 30.01 in WNW 2.0 mph 5.0 mph 79% 0.00 in
10:14 68.1 °F 61.3 °F 30.01 in WNW 2.0 mph 7.0 mph 79% 0.00 in
10:19 68.0 °F 60.9 °F 30.01 in West 1.0 mph 5.0 mph 78% 0.00 in
10:24 68.1 °F 61.0 °F 30.01 in West 5.0 mph 5.0 mph 78% 0.00 in
10:29 68.0 °F 60.9 °F 30.01 in WNW 3.0 mph 7.0 mph 78% 0.00 in
10:34 67.9 °F 60.8 °F 30.01 in West 3.0 mph 7.0 mph 78% 0.00 in
10:39 68.3 °F 61.2 °F 30.01 in West 3.0 mph 6.0 mph 78% 0.00 in
10:44 68.4 °F 60.9 °F 30.01 in West 2.0 mph 8.0 mph 77% 0.00 in
10:49 68.5 °F 61.0 °F 30.01 in West 3.0 mph 8.0 mph 77% 0.00 in
10:54 68.8 °F 61.7 °F 30.01 in West 3.0 mph 6.0 mph 78% 0.00 in
10:59 69.0 °F 61.5 °F 30.02 in West 3.0 mph 6.0 mph 77% 0.00 in
11:04 69.0 °F 61.1 °F 30.01 in West 3.0 mph 8.0 mph 76% 0.00 in
11:09 69.5 °F 61.6 °F 30.01 in West 4.0 mph 8.0 mph 76% 0.00 in
11:14 69.6 °F 61.7 °F 30.01 in West 1.0 mph 6.0 mph 76% 0.00 in
11:19 69.9 °F 61.6 °F 30.01 in WSW 5.0 mph 7.0 mph 75% 0.00 in
11:24 71.1 °F 62.4 °F 30.01 in Calm   7.0 mph 74% 0.00 in
11:29 70.9 °F 61.4 °F 30.01 in WSW 3.0 mph 6.0 mph 72% 0.00 in
11:34 70.6 °F 61.5 °F 30.01 in West 3.0 mph 6.0 mph 73% 0.00 in
11:39 70.6 °F 61.5 °F 30.01 in WSW 3.0 mph 7.0 mph 73% 0.00 in
11:44 70.8 °F 61.3 °F 30.01 in West 3.0 mph 7.0 mph 72% 0.00 in
11:49 70.5 °F 61.0 °F 30.01 in WNW 2.0 mph 7.0 mph 72% 0.00 in
11:54 70.4 °F 60.9 °F 30.01 in West 3.0 mph 8.0 mph 72% 0.00 in
11:59 70.1 °F 60.7 °F 30.01 in West 5.0 mph 6.0 mph 72% 0.00 in
12:04 70.4 °F 61.3 °F 30.01 in West 3.0 mph 6.0 mph 73% 0.00 in
12:09 70.6 °F 61.5 °F 30.01 in West 3.0 mph 8.0 mph 73% 0.00 in
12:14 70.6 °F 61.1 °F 30.01 in West 4.0 mph 7.0 mph 72% 0.00 in
12:19 71.2 °F 61.7 °F 30.01 in WNW 3.0 mph 6.0 mph 72% 0.00 in
12:24 71.6 °F 61.7 °F 30.01 in WNW 2.0 mph 8.0 mph 71% 0.00 in
12:29 71.2 °F 61.3 °F 30.01 in WNW 7.0 mph 9.0 mph 71% 0.00 in
12:34 71.4 °F 62.3 °F 30.01 in WSW 5.0 mph 10.0 mph 73% 0.00 in
12:39 71.9 °F 62.8 °F 30.00 in WSW 4.0 mph 10.0 mph 73% 0.00 in
12:44 72.6 °F 63.4 °F 30.00 in WSW 4.0 mph 8.0 mph 73% 0.00 in
12:49 73.9 °F 63.5 °F 30.00 in SW 5.0 mph 14.0 mph 70% 0.00 in
12:54 74.3 °F 63.9 °F 30.00 in WSW 5.0 mph 11.0 mph 70% 0.00 in
12:59 73.8 °F 63.8 °F 30.00 in West 4.0 mph 10.0 mph 71% 0.00 in
13:04 72.9 °F 62.9 °F 30.00 in SW 5.0 mph 11.0 mph 71% 0.00 in
13:09 72.2 °F 62.7 °F 30.00 in SW 6.0 mph 11.0 mph 72% 0.00 in
13:14 72.5 °F 63.0 °F 30.00 in SW 6.0 mph 13.0 mph 72% 0.00 in
13:19 72.4 °F 63.3 °F 30.00 in WSW 5.0 mph 13.0 mph 73% 0.00 in
13:24 72.2 °F 62.7 °F 30.00 in SW 7.0 mph 11.0 mph 72% 0.00 in
13:29 72.1 °F 62.6 °F 30.00 in West 5.0 mph 11.0 mph 72% 0.00 in
13:34 71.6 °F 62.5 °F 30.00 in SW 5.0 mph 11.0 mph 73% 0.00 in
13:39 71.3 °F 62.2 °F 30.00 in SW 7.0 mph 10.0 mph 73% 0.00 in
13:44 70.9 °F 62.2 °F 30.01 in SW 6.0 mph 13.0 mph 74% 0.00 in
13:49 70.6 °F 61.9 °F 30.01 in West 8.0 mph 13.0 mph 74% 0.00 in
13:54 70.4 °F 62.1 °F 30.00 in WSW 6.0 mph 12.0 mph 75% 0.00 in
13:59 70.4 °F 62.1 °F 30.00 in WSW 5.0 mph 10.0 mph 75% 0.00 in
14:04 70.6 °F 62.7 °F 30.00 in WSW 5.0 mph 10.0 mph 76% 0.00 in
14:09 70.6 °F 61.9 °F 30.00 in WSW 5.0 mph 12.0 mph 74% 0.00 in
14:14 71.0 °F 62.7 °F 30.00 in SW 6.0 mph 12.0 mph 75% 0.00 in
14:19 71.3 °F 62.6 °F 30.00 in WSW 5.0 mph 10.0 mph 74% 0.00 in
14:24 71.4 °F 62.7 °F 30.00 in WSW 5.0 mph 11.0 mph 74% 0.00 in
14:29 71.9 °F 62.4 °F 30.00 in WSW 5.0 mph 14.0 mph 72% 0.00 in
14:39 72.6 °F 63.1 °F 30.00 in WSW 9.0 mph 10.0 mph 72% 0.00 in
14:44 72.3 °F 62.4 °F 30.00 in SW 5.0 mph 12.0 mph 71% 0.00 in
14:49 72.6 °F 62.7 °F 30.00 in WSW 5.0 mph 13.0 mph 71% 0.00 in
14:54 73.5 °F 62.7 °F 30.00 in SSW 7.0 mph 14.0 mph 69% 0.00 in
14:59 74.1 °F 62.4 °F 30.00 in SW 6.0 mph 11.0 mph 67% 0.00 in
15:04 73.9 °F 63.1 °F 30.00 in SW 6.0 mph 13.0 mph 69% 0.00 in
15:09 73.9 °F 62.2 °F 30.00 in SW 6.0 mph 15.0 mph 67% 0.00 in
15:14 73.7 °F 62.5 °F 30.00 in WSW 7.0 mph 15.0 mph 68% 0.00 in
15:19 74.8 °F 62.2 °F 30.00 in WSW 7.0 mph 15.0 mph 65% 0.00 in
15:24 74.4 °F 62.7 °F 30.00 in WSW 6.0 mph 13.0 mph 67% 0.00 in
15:29 74.1 °F 62.0 °F 30.00 in WSW 6.0 mph 11.0 mph 66% 0.00 in
15:34 73.7 °F 62.5 °F 29.99 in WSW 6.0 mph 11.0 mph 68% 0.00 in
15:39 74.5 °F 62.8 °F 30.00 in SW 4.0 mph 10.0 mph 67% 0.00 in
15:44 74.7 °F 63.0 °F 30.00 in SW 8.0 mph 14.0 mph 67% 0.00 in
15:49 74.5 °F 63.2 °F 30.00 in SSW 3.0 mph 10.0 mph 68% 0.00 in
15:54 74.5 °F 62.4 °F 29.99 in WSW 8.0 mph 12.0 mph 66% 0.00 in
15:59 75.2 °F 63.5 °F 29.99 in WSW 6.0 mph 10.0 mph 67% 0.00 in
16:04 75.4 °F 62.8 °F 29.99 in WSW 6.0 mph 11.0 mph 65% 0.00 in
16:09 74.9 °F 63.6 °F 29.99 in WSW 6.0 mph 13.0 mph 68% 0.00 in
16:14 75.6 °F 63.9 °F 29.99 in WSW 6.0 mph 13.0 mph 67% 0.00 in
16:19 74.8 °F 62.7 °F 29.99 in WSW 7.0 mph 14.0 mph 66% 0.00 in
16:24 74.7 °F 62.6 °F 29.99 in WSW 8.0 mph 14.0 mph 66% 0.00 in
16:29 74.5 °F 62.8 °F 29.98 in WSW 6.0 mph 13.0 mph 67% 0.00 in
16:34 75.1 °F 63.0 °F 29.98 in SW 7.0 mph 13.0 mph 66% 0.00 in
16:39 75.0 °F 62.9 °F 29.98 in West 7.0 mph 12.0 mph 66% 0.00 in
16:44 75.0 °F 63.3 °F 29.98 in WSW 5.0 mph 13.0 mph 67% 0.00 in
16:49 75.1 °F 62.5 °F 29.98 in WSW 4.0 mph 12.0 mph 65% 0.00 in
16:54 75.1 °F 63.0 °F 29.98 in SW 14.0 mph 14.0 mph 66% 0.00 in
16:59 74.9 °F 62.8 °F 29.98 in WSW 6.0 mph 14.0 mph 66% 0.00 in
17:04 74.2 °F 62.5 °F 29.98 in SW 7.0 mph 14.0 mph 67% 0.00 in
17:09 74.4 °F 63.6 °F 29.97 in WSW 7.0 mph 15.0 mph 69% 0.00 in
17:14 74.5 °F 63.2 °F 29.97 in WSW 7.0 mph 17.0 mph 68% 0.00 in
17:19 74.5 °F 63.7 °F 29.97 in SW 7.0 mph 17.0 mph 69% 0.00 in
17:24 74.4 °F 63.1 °F 29.97 in WSW 11.0 mph 14.0 mph 68% 0.00 in
17:29 74.1 °F 63.3 °F 29.97 in WSW 7.0 mph 15.0 mph 69% 0.00 in
17:34 74.0 °F 63.2 °F 29.97 in SW 8.0 mph 17.0 mph 69% 0.00 in
17:39 73.7 °F 63.3 °F 29.97 in SW 7.0 mph 17.0 mph 70% 0.00 in
17:44 73.7 °F 63.7 °F 29.97 in SW 7.0 mph 12.0 mph 71% 0.00 in
17:49 73.3 °F 63.7 °F 29.97 in WSW 7.0 mph 12.0 mph 72% 0.00 in
17:54 73.0 °F 63.8 °F 29.97 in SW 7.0 mph 14.0 mph 73% 0.00 in
17:59 73.1 °F 63.9 °F 29.97 in West 10.0 mph 13.0 mph 73% 0.00 in
18:04 73.5 °F 64.3 °F 29.97 in SSW 7.0 mph 14.0 mph 73% 0.00 in
18:09 73.6 °F 63.6 °F 29.97 in WSW 8.0 mph 12.0 mph 71% 0.00 in
18:14 73.3 °F 63.7 °F 29.97 in West 8.0 mph 15.0 mph 72% 0.00 in
18:19 72.7 °F 63.5 °F 29.96 in WSW 10.0 mph 13.0 mph 73% 0.00 in
18:24 72.8 °F 64.0 °F 29.96 in West 8.0 mph 17.0 mph 74% 0.00 in
18:29 73.1 °F 64.3 °F 29.96 in WSW 8.0 mph 17.0 mph 74% 0.00 in
18:34 73.1 °F 64.3 °F 29.96 in WSW 7.0 mph 16.0 mph 74% 0.00 in
18:39 73.1 °F 64.3 °F 29.96 in WSW 7.0 mph 16.0 mph 74% 0.00 in
18:44 73.2 °F 64.0 °F 29.96 in SW 7.0 mph 12.0 mph 73% 0.00 in
18:49 72.9 °F 63.7 °F 29.96 in WSW 5.0 mph 13.0 mph 73% 0.00 in
18:54 72.9 °F 63.7 °F 29.96 in West 7.0 mph 13.0 mph 73% 0.00 in
18:59 72.7 °F 63.5 °F 29.96 in WSW 6.0 mph 13.0 mph 73% 0.00 in
19:04 72.6 °F 63.8 °F 29.96 in SW 6.0 mph 13.0 mph 74% 0.00 in
19:09 72.5 °F 63.7 °F 29.96 in SW 4.0 mph 13.0 mph 74% 0.00 in
19:14 72.4 °F 63.6 °F 29.96 in West 6.0 mph 14.0 mph 74% 0.00 in
19:19 72.4 °F 63.6 °F 29.96 in SW 9.0 mph 14.0 mph 74% 0.00 in
19:24 72.3 °F 63.9 °F 29.95 in SW 8.0 mph 11.0 mph 75% 0.00 in
19:29 72.1 °F 63.4 °F 29.95 in SW 7.0 mph 15.0 mph 74% 0.00 in
19:34 72.0 °F 64.0 °F 29.95 in SW 7.0 mph 15.0 mph 76% 0.00 in
19:39 71.9 °F 63.5 °F 29.95 in WSW 7.0 mph 14.0 mph 75% 0.00 in
19:44 71.9 °F 63.9 °F 29.96 in WSW 6.0 mph 14.0 mph 76% 0.00 in
19:49 71.9 °F 63.9 °F 29.96 in West 4.0 mph 11.0 mph 76% 0.00 in
19:54 71.7 °F 63.7 °F 29.96 in WSW 5.0 mph 14.0 mph 76% 0.00 in
19:59 71.5 °F 63.9 °F 29.96 in WSW 6.0 mph 14.0 mph 77% 0.00 in
20:04 71.4 °F 64.2 °F 29.96 in WSW 6.0 mph 11.0 mph 78% 0.00 in
20:09 71.2 °F 64.0 °F 29.96 in SW 5.0 mph 11.0 mph 78% 0.00 in
20:14 71.2 °F 64.0 °F 29.96 in WSW 9.0 mph 14.0 mph 78% 0.00 in
20:19 71.1 °F 63.9 °F 29.96 in SW 6.0 mph 15.0 mph 78% 0.00 in
20:24 71.1 °F 64.3 °F 29.96 in WSW 7.0 mph 15.0 mph 79% 0.00 in
20:29 71.0 °F 64.2 °F 29.97 in WSW 7.0 mph 15.0 mph 79% 0.00 in
20:34 71.0 °F 64.2 °F 29.97 in WSW 7.0 mph 15.0 mph 79% 0.00 in
20:39 71.0 °F 64.2 °F 29.97 in WSW 5.0 mph 15.0 mph 79% 0.00 in
20:44 71.1 °F 64.3 °F 29.96 in WSW 3.0 mph 11.0 mph 79% 0.00 in
20:49 71.0 °F 64.2 °F 29.96 in SW 10.0 mph 14.0 mph 79% 0.00 in
20:54 70.9 °F 64.1 °F 29.97 in SW 6.0 mph 17.0 mph 79% 0.00 in
20:59 70.8 °F 64.0 °F 29.97 in WSW 6.0 mph 17.0 mph 79% 0.00 in
21:04 70.8 °F 64.3 °F 29.97 in WSW 5.0 mph 12.0 mph 80% 0.00 in
21:09 70.9 °F 64.4 °F 29.97 in WSW 6.0 mph 14.0 mph 80% 0.00 in
21:14 70.8 °F 64.3 °F 29.97 in WSW 7.0 mph 14.0 mph 80% 0.00 in
21:19 70.8 °F 64.7 °F 29.97 in SSW 7.0 mph 12.0 mph 81% 0.00 in
21:24 70.8 °F 64.7 °F 29.97 in West 3.0 mph 11.0 mph 81% 0.00 in
21:29 70.9 °F 64.8 °F 29.97 in SW 3.0 mph 12.0 mph 81% 0.00 in
21:34 70.8 °F 64.7 °F 29.97 in WSW 5.0 mph 8.0 mph 81% 0.00 in
21:39 70.7 °F 64.9 °F 29.96 in SW 3.0 mph 10.0 mph 82% 0.00 in
21:44 70.6 °F 64.8 °F 29.97 in SW 6.0 mph 13.0 mph 82% 0.00 in
21:49 70.5 °F 64.7 °F 29.96 in WSW 3.0 mph 9.0 mph 82% 0.00 in
21:54 70.4 °F 65.0 °F 29.96 in WSW 5.0 mph 10.0 mph 83% 0.00 in
21:59 70.4 °F 64.6 °F 29.96 in SW 5.0 mph 10.0 mph 82% 0.00 in
22:04 70.4 °F 64.6 °F 29.96 in SW 5.0 mph 11.0 mph 82% 0.00 in
22:09 70.3 °F 64.9 °F 29.96 in SW 5.0 mph 11.0 mph 83% 0.00 in
22:14 70.3 °F 64.9 °F 29.96 in SW 5.0 mph 10.0 mph 83% 0.00 in
22:19 70.3 °F 64.9 °F 29.95 in WSW 6.0 mph 11.0 mph 83% 0.00 in
22:24 70.2 °F 64.8 °F 29.95 in SW 5.0 mph 9.0 mph 83% 0.00 in
22:29 70.1 °F 65.0 °F 29.95 in West 2.0 mph 7.0 mph 84% 0.00 in
22:34 70.0 °F 64.9 °F 29.95 in SW 6.0 mph 7.0 mph 84% 0.00 in
22:39 70.0 °F 64.9 °F 29.95 in SW 4.0 mph 10.0 mph 84% 0.00 in
22:44 70.1 °F 65.0 °F 29.95 in South 1.0 mph 7.0 mph 84% 0.00 in
22:49 70.1 °F 65.0 °F 29.95 in WSW 3.0 mph 9.0 mph 84% 0.00 in
22:54 70.0 °F 64.9 °F 29.94 in WSW 3.0 mph 9.0 mph 84% 0.00 in
22:59 70.0 °F 65.3 °F 29.95 in WSW 3.0 mph 6.0 mph 85% 0.00 in
23:04 70.0 °F 65.3 °F 29.94 in WSW 3.0 mph 5.0 mph 85% 0.00 in
23:09 69.9 °F 65.2 °F 29.95 in WSW 3.0 mph 5.0 mph 85% 0.00 in
23:14 69.7 °F 65.0 °F 29.95 in WSW 2.0 mph 5.0 mph 85% 0.00 in
23:19 69.7 °F 65.0 °F 29.95 in SW 1.0 mph 5.0 mph 85% 0.00 in
23:24 69.4 °F 64.4 °F 29.95 in WSW 2.0 mph 5.0 mph 84% 0.00 in
23:29 69.4 °F 64.0 °F 29.95 in West 2.0 mph 5.0 mph 83% 0.00 in
23:34 69.4 °F 63.7 °F 29.95 in Calm   5.0 mph 82% 0.00 in
23:39 69.2 °F 63.5 °F 29.94 in WSW 1.0 mph 5.0 mph 82% 0.00 in
23:44 69.0 °F 63.3 °F 29.94 in Calm   4.0 mph 82% 0.00 in
23:49 68.7 °F 63.0 °F 29.95 in SW 1.0 mph 4.0 mph 82% 0.00 in
23:54 68.4 °F 62.7 °F 29.95 in Calm   3.0 mph 82% 0.00 in
23:59 68.1 °F 62.7 °F 29.95 in Calm   3.0 mph 83% 0.00 in
Buffalo, New York, USA
Compliments of Weather Underground - 2.5 mb